EW1587 Weather Reports


Display with metric or nautical units.
time (UTC)temp
F
wind
direction
speed
MPH
gust
MPH
rain 1hr
in
rain 24hr
in
rain mn
in
humidity
%
barometer
mb
20260508151547 55 281 5.0 11.0 0.00 0.00 0.00 39 1007.4
20260508151046 54 280 6.0 12.0 0.00 0.00 0.00 41 1007.5
20260508150543 54 273 5.0 12.0 0.00 0.00 0.00 40 1007.5
20260508150043 54 278 7.0 12.0 0.00 0.00 0.00 41 1007.6
20260508145542 53 282 8.0 13.0 0.00 0.00 0.00 41 1007.7
20260508145041 53 260 8.0 16.0 0.00 0.00 0.00 41 1007.6
20260508144541 53 287 10.0 16.0 0.00 0.00 0.00 41 1007.7
20260508144040 53 281 10.0 15.0 0.00 0.00 0.00 42 1007.8
20260508143540 53 284 10.0 16.0 0.00 0.00 0.00 43 1007.7
20260508143040 53 269 10.0 19.0 0.00 0.00 0.00 41 1007.8
20260508142540 53 285 11.0 19.0 0.00 0.00 0.00 41 1007.7
20260508142040 53 270 9.0 15.0 0.00 0.00 0.00 40 1007.8
20260508141545 53 284 9.0 13.0 0.00 0.00 0.00 42 1007.8
20260508141036 52 261 5.0 13.0 0.00 0.00 0.00 43 1007.8
20260508140535 52 269 5.0 7.0 0.00 0.00 0.00 44 1007.9
20260508140037 51 267 2.0 7.0 0.00 0.00 0.00 48 1008.0
20260508135533 51 314 1.0 10.0 0.00 0.00 0.00 48 1008.1
20260508135032 51 281 4.0 11.0 0.00 0.00 0.00 46 1008.2
20260508134534 50 294 6.0 11.0 0.00 0.00 0.00 46 1008.4
20260508134030 50 294 1.0 5.0 0.00 0.00 0.00 49 1008.4
20260508133530 49 318 2.0 6.0 0.00 0.00 0.00 48 1008.4
20260508133029 49 312 3.0 6.0 0.00 0.00 0.00 50 1008.3
20260508132529 49 270 0.0 4.0 0.00 0.00 0.00 51 1008.4
20260508132026 48 274 2.0 4.0 0.00 0.00 0.00 52 1008.3
20260508131525 48 288 0.0 3.0 0.00 0.00 0.00 54 1008.3
20260508131024 47 231 0.0 1.0 0.00 0.00 0.00 56 1008.3
20260508130521 47 228 0.0 1.0 0.00 0.00 0.00 56 1008.3
20260508130020 46 341 0.0 1.0 0.00 0.00 0.00 56 1008.4
20260508125519 46 281 0.0 3.0 0.00 0.00 0.00 56 1008.4
20260508125018 45 297 0.0 3.0 0.00 0.00 0.00 55 1008.3
20260508124519 45 270 0.0 3.0 0.00 0.00 0.00 56 1008.3
20260508124018 45 273 1.0 3.0 0.00 0.00 0.00 55 1008.3
20260508123522 45 273 0.0 3.0 0.00 0.00 0.00 57 1008.3
20260508123024 44 276 0.0 3.0 0.00 0.00 0.00 56 1008.4
20260508122517 44 283 1.0 3.0 0.00 0.00 0.00 59 1008.4
20260508122016 43 283 1.0 3.0 0.00 0.00 0.00 57 1008.4
20260508121519 43 288 0.0 3.0 0.00 0.00 0.00 56 1008.3
20260508121015 43 276 1.0 3.0 0.00 0.00 0.00 55 1008.3
20260508120515 42 282 1.0 3.0 0.00 0.00 0.00 55 1008.3
20260508120015 42 286 1.0 3.0 0.00 0.00 0.00 55 1008.3
20260508115515 41 283 0.0 1.0 0.00 0.00 0.00 55 1008.3
20260508115014 40 290 0.0 1.0 0.00 0.00 0.00 56 1008.3
20260508114514 40 300 0.0 1.0 0.00 0.00 0.00 58 1008.2
20260508114018 39 27 0.0 0.0 0.00 0.00 0.00 59 1008.2
20260508113514 39 44 0.0 0.0 0.00 0.00 0.00 59 1008.2
20260508113016 39 48 0.0 0.0 0.00 0.00 0.00 60 1008.2
20260508112517 39 48 0.0 0.0 0.00 0.00 0.00 61 1008.2
20260508112012 38 48 0.0 0.0 0.00 0.00 0.00 61 1008.2
20260508111512 38 49 0.0 0.0 0.00 0.00 0.00 60 1008.1
20260508111010 39 49 0.0 0.0 0.00 0.00 0.00 58 1008.1
20260508110509 39 271 0.0 0.0 0.00 0.00 0.00 55 1008.2
20260508110015 39 271 0.0 0.0 0.00 0.00 0.00 54 1008.2
20260508105509 40 271 0.0 1.0 0.00 0.00 0.00 54 1008.2
20260508105006 40 252 0.0 2.0 0.00 0.00 0.00 55 1008.2
20260508104507 40 270 0.0 2.0 0.00 0.00 0.00 54 1008.3
20260508104004 40 276 0.0 3.0 0.00 0.00 0.00 54 1008.3
20260508103503 41 269 0.0 3.0 0.00 0.00 0.00 54 1008.3
20260508103002 41 270 1.0 2.0 0.00 0.00 0.00 54 1008.3
20260508102503 41 273 1.0 3.0 0.00 0.00 0.00 53 1008.4
20260508102002 41 273 2.0 4.0 0.00 0.00 0.00 53 1008.4
20260508101502 41 260 2.0 3.0 0.00 0.00 0.00 53 1008.3
20260508101002 41 255 2.0 4.0 0.00 0.00 0.00 53 1008.4
20260508100501 41 274 2.0 4.0 0.00 0.00 0.00 53 1008.4
20260508100105 41 262 2.0 6.0 0.00 0.00 0.00 53 1008.4
20260508095600 41 258 3.0 6.0 0.00 0.00 0.00 53 1008.4
20260508095502 41 260 2.0 6.0 0.00 0.00 0.00 53 1008.4
20260508095100 41 269 2.0 5.0 0.00 0.00 0.00 53 1008.4
20260508094616 41 267 2.0 5.0 0.00 0.00 0.00 53 1008.4
20260508094059 41 270 2.0 4.0 0.00 0.00 0.00 53 1008.5
20260508093602 41 260 1.0 3.0 0.00 0.00 0.00 53 1008.5
20260508093058 41 263 1.0 3.0 0.00 0.00 0.00 53 1008.5
20260508092557 41 260 1.0 4.0 0.00 0.00 0.00 53 1008.6
20260508092057 41 277 2.0 4.0 0.00 0.00 0.00 54 1008.6
20260508091559 41 270 1.0 2.0 0.00 0.00 0.00 54 1008.6
20260508091057 41 270 1.0 2.0 0.00 0.00 0.00 54 1008.6
20260508090557 41 257 1.0 3.0 0.00 0.00 0.00 54 1008.7
20260508090056 41 260 1.0 3.0 0.00 0.00 0.00 54 1008.7
20260508085556 41 262 2.0 3.0 0.00 0.00 0.00 54 1008.7
20260508085055 41 263 2.0 4.0 0.00 0.00 0.00 54 1008.6
20260508084555 41 259 2.0 4.0 0.00 0.00 0.00 54 1008.7
20260508084055 41 262 2.0 6.0 0.00 0.00 0.00 54 1008.6
20260508083553 41 250 2.0 6.0 0.00 0.00 0.00 54 1008.7
20260508083052 41 257 2.0 4.0 0.00 0.00 0.00 54 1008.8
20260508082551 41 243 2.0 4.0 0.00 0.00 0.00 53 1008.8
20260508082051 42 262 1.0 3.0 0.00 0.00 0.00 53 1008.8
20260508081610 42 248 2.0 4.0 0.00 0.00 0.00 53 1008.7
20260508081050 42 255 2.0 4.0 0.00 0.00 0.00 53 1008.8
20260508080549 42 256 2.0 3.0 0.00 0.00 0.00 53 1008.9
20260508080049 42 271 1.0 5.0 0.00 0.00 0.00 53 1008.9
20260508075548 42 260 2.0 5.0 0.00 0.00 0.00 53 1008.9
20260508075046 42 264 2.0 5.0 0.00 0.00 0.00 52 1008.9
20260508074546 42 249 2.0 5.0 0.00 0.00 0.00 52 1008.9
20260508074045 42 258 2.0 4.0 0.00 0.00 0.00 52 1008.9
20260508073545 42 250 3.0 4.0 0.00 0.00 0.00 52 1008.9
20260508073044 42 252 3.0 4.0 0.00 0.00 0.00 51 1008.9
20260508072542 42 265 2.0 4.0 0.00 0.00 0.00 51 1008.9
20260508072042 43 256 2.0 4.0 0.00 0.00 0.00 51 1008.9
20260508071545 43 261 2.0 5.0 0.00 0.00 0.00 51 1009.0
20260508071040 43 264 2.0 5.0 0.00 0.00 0.00 51 1009.0
20260508070539 43 269 1.0 3.0 0.00 0.00 0.00 50 1009.0
20260508070039 43 257 1.0 3.0 0.00 0.00 0.00 50 1009.1
20260508065538 43 256 1.0 4.0 0.00 0.00 0.00 50 1009.1
20260508065035 43 246 1.0 4.0 0.00 0.00 0.00 49 1009.1
20260508064535 43 259 0.0 3.0 0.00 0.00 0.00 49 1009.1
20260508064033 44 256 0.0 3.0 0.00 0.00 0.00 49 1009.2
20260508063534 44 267 0.0 3.0 0.00 0.00 0.00 48 1009.2
20260508063045 44 260 1.0 3.0 0.00 0.00 0.00 48 1009.2
20260508062532 44 269 1.0 2.0 0.00 0.00 0.00 47 1009.2
20260508062029 44 255 1.0 2.0 0.00 0.00 0.00 47 1009.2
20260508061530 44 255 1.0 2.0 0.00 0.00 0.00 47 1009.3
20260508061028 44 257 1.0 2.0 0.00 0.00 0.00 47 1009.4
20260508060527 44 263 0.0 2.0 0.00 0.00 0.00 47 1009.4
20260508060034 44 262 0.0 3.0 0.00 0.00 0.00 47 1009.4
20260508055526 44 255 2.0 3.0 0.00 0.00 0.00 47 1009.5
20260508055025 44 248 1.0 2.0 0.00 0.00 0.00 47 1009.5
20260508054525 44 255 0.0 1.0 0.00 0.00 0.00 46 1009.5
20260508054023 45 267 0.0 1.0 0.00 0.00 0.00 46 1009.5
20260508053523 45 257 0.0 1.0 0.00 0.00 0.00 46 1009.6
20260508053024 45 256 0.0 1.0 0.00 0.00 0.00 46 1009.6
20260508052524 45 255 0.0 1.0 0.00 0.00 0.00 45 1009.7
20260508052020 45 255 0.0 1.0 0.00 0.00 0.00 45 1009.7
20260508051522 45 257 0.0 1.0 0.00 0.00 0.00 45 1009.7
20260508051020 45 254 0.0 1.0 0.00 0.00 0.00 45 1009.7
20260508050518 45 267 0.0 0.0 0.00 0.00 0.00 45 1009.8
20260508050021 45 269 0.0 1.0 0.00 0.00 0.00 45 1009.8
20260508045517 45 269 0.0 1.0 0.00 0.00 0.00 45 1009.8
20260508045018 45 265 0.0 1.0 0.00 0.00 0.00 45 1009.9
20260508044620 46 267 0.0 1.0 0.00 0.00 0.00 44 1009.9
20260508044017 46 262 0.0 1.0 0.00 0.00 0.00 44 1010.0
20260508043517 46 262 0.0 2.0 0.00 0.00 0.00 44 1010.0
20260508043020 46 266 1.0 2.0 0.00 0.00 0.00 44 1010.1
20260508042519 46 262 0.0 1.0 0.00 0.00 0.00 44 1010.0
20260508042016 46 253 0.0 1.0 0.00 0.00 0.00 43 1010.1
20260508041517 46 250 0.0 2.0 0.00 0.00 0.00 43 1010.1
20260508041016 46 255 1.0 2.0 0.00 0.00 0.00 43 1010.1
20260508040515 46 249 0.0 2.0 0.00 0.00 0.00 43 1010.1
20260508040116 46 255 0.0 1.0 0.00 0.00 0.00 42 1010.1
20260508035515 47 262 0.0 1.0 0.00 0.00 0.00 42 1010.2
20260508035015 47 253 0.0 1.0 0.00 0.00 0.00 42 1010.2
20260508034515 47 252 0.0 1.0 0.00 0.00 0.00 42 1010.3
20260508034015 47 250 0.0 1.0 0.00 0.00 0.00 42 1010.3
20260508033514 47 245 0.0 1.0 0.00 0.00 0.00 41 1010.3
20260508033017 47 253 0.0 1.0 0.00 0.00 0.00 41 1010.3
20260508032518 47 256 0.0 0.0 0.00 0.00 0.00 40 1010.4
20260508032013 48 256 0.0 0.0 0.00 0.00 0.00 40 1010.3
20260508031514 48 256 0.0 0.0 0.00 0.00 0.00 40 1010.4
20260508031014 48 255 0.0 0.0 0.00 0.00 0.00 39 1010.4
20260508030514 48 256 0.0 1.0 0.00 0.00 0.00 39 1010.4
20260508030014 48 256 0.0 1.0 0.00 0.00 0.00 39 1010.4
20260508025517 48 255 0.0 1.0 0.00 0.00 0.00 39 1010.4
20260508025013 48 257 0.0 1.0 0.00 0.00 0.00 39 1010.4
20260508024530 49 259 0.0 1.0 0.00 0.00 0.00 40 1010.4
20260508024016 49 262 0.0 1.0 0.00 0.00 0.00 40 1010.3
20260508023512 49 263 0.0 1.0 0.00 0.00 0.00 40 1010.4
20260508023022 49 264 0.0 1.0 0.00 0.00 0.00 41 1010.4
20260508022512 49 273 0.0 0.0 0.00 0.00 0.00 42 1010.4
20260508022012 50 273 0.0 1.0 0.00 0.00 0.00 44 1010.3
20260508021513 50 273 0.0 1.0 0.00 0.00 0.00 44 1010.2
20260508021013 50 277 0.0 1.0 0.00 0.00 0.00 44 1010.2
20260508020511 50 274 0.0 1.0 0.00 0.00 0.00 43 1010.2
20260508020011 51 274 0.0 1.0 0.00 0.00 0.00 43 1010.2
20260508015511 51 274 0.0 1.0 0.00 0.00 0.00 42 1010.1
20260508015011 52 246 0.0 1.0 0.00 0.00 0.00 40 1010.1
20260508014511 52 281 0.0 2.0 0.00 0.00 0.00 38 1010.1
20260508014011 53 287 0.0 2.0 0.00 0.00 0.00 36 1010.0
20260508013514 53 297 0.0 3.0 0.00 0.00 0.00 36 1010.0
20260508013010 53 283 1.0 4.0 0.00 0.00 0.00 36 1010.0
20260508012510 54 284 1.0 4.0 0.00 0.00 0.00 35 1009.9
20260508012011 54 294 1.0 4.0 0.00 0.00 0.00 35 1010.0
20260508011509 54 284 2.0 5.0 0.00 0.00 0.00 34 1009.9
20260508011009 54 277 2.0 5.0 0.00 0.00 0.00 33 1009.9
20260508010508 55 290 2.0 8.0 0.00 0.00 0.00 33 1009.9
20260508010010 55 301 3.0 9.0 0.00 0.00 0.00 32 1009.8
20260508005508 55 302 3.0 9.0 0.00 0.00 0.00 32 1009.9
20260508005010 56 288 3.0 10.0 0.00 0.00 0.00 32 1009.8
20260508004507 56 283 2.0 13.0 0.00 0.00 0.00 32 1009.8
20260508004012 56 303 5.0 13.0 0.00 0.00 0.00 32 1009.7
20260508003510 56 269 5.0 12.0 0.00 0.00 0.00 31 1009.8
20260508003006 56 307 7.0 13.0 0.00 0.00 0.00 31 1009.8
20260508002508 57 334 5.0 13.0 0.00 0.00 0.00 31 1009.8
20260508002005 57 305 6.0 11.0 0.00 0.00 0.00 31 1009.8
20260508001504 57 253 3.0 12.0 0.00 0.00 0.00 31 1009.8
20260508001004 57 294 4.0 13.0 0.00 0.00 0.00 30 1009.9
20260508000504 57 323 5.0 13.0 0.00 0.00 0.00 29 1009.9
20260508000004 57 294 6.0 13.0 0.00 0.00 0.00 30 1010.0
20260507235508 57 269 3.0 14.0 0.00 0.00 0.00 31 1010.0
20260507235003 57 316 6.0 14.0 0.00 0.00 0.00 30 1010.0
20260507234504 57 328 7.0 14.0 0.00 0.00 0.00 30 1010.0
20260507234002 57 252 2.0 9.0 0.00 0.00 0.00 29 1010.0
20260507233502 57 333 2.0 12.0 0.00 0.00 0.00 29 1010.0
20260507233002 57 315 4.0 16.0 0.00 0.00 0.00 31 1010.0
20260507232503 57 305 8.0 16.0 0.00 0.00 0.00 30 1010.1
20260507232100 58 285 7.0 13.0 0.00 0.00 0.00 29 1010.1
20260507231601 58 285 6.0 11.0 0.00 0.00 0.00 29 1010.1
20260507231059 58 281 7.0 12.0 0.00 0.00 0.00 30 1010.2
20260507230602 57 25 3.0 19.0 0.00 0.00 0.00 30 1010.3
20260507230105 57 357 11.0 19.0 0.00 0.00 0.00 30 1010.3
20260507225558 57 316 10.0 16.0 0.00 0.00 0.00 31 1010.3
20260507225057 57 287 7.0 15.0 0.00 0.00 0.00 32 1010.3
20260507224603 57 287 7.0 14.0 0.00 0.00 0.00 30 1010.4
20260507224056 57 288 7.0 11.0 0.00 0.00 0.00 30 1010.4
20260507223556 57 335 4.0 11.0 0.00 0.00 0.00 29 1010.5
20260507223055 57 284 5.0 15.0 0.00 0.00 0.00 29 1010.6
20260507222557 57 294 6.0 16.0 0.00 0.00 0.00 29 1010.5
20260507222055 57 278 10.0 16.0 0.00 0.00 0.00 29 1010.5
20260507221553 57 278 7.0 13.0 0.00 0.00 0.00 29 1010.6
20260507221054 57 339 4.0 16.0 0.00 0.00 0.00 29 1010.6
20260507220551 57 266 7.0 16.0 0.00 0.00 0.00 29 1010.8
20260507220051 56 273 6.0 15.0 0.00 0.00 0.00 30 1010.7
20260507215551 56 238 5.0 15.0 0.00 0.00 0.00 29 1010.8
20260507215050 57 288 11.0 20.0 0.00 0.00 0.00 29 1010.8
20260507214602 57 294 7.0 19.0 0.00 0.00 0.00 32 1010.7
20260507214050 56 269 6.0 10.0 0.00 0.00 0.00 29 1010.8
20260507213549 56 328 3.0 14.0 0.00 0.00 0.00 29 1010.9
20260507213048 56 295 6.0 18.0 0.00 0.00 0.00 30 1010.9
20260507212548 56 255 8.0 18.0 0.00 0.00 0.00 29 1011.0
20260507212047 56 280 6.0 11.0 0.00 0.00 0.00 30 1011.0
20260507211550 55 358 1.0 10.0 0.00 0.00 0.00 29 1011.0
20260507211046 56 278 4.0 14.0 0.00 0.00 0.00 28 1011.1
20260507210546 56 353 6.0 19.0 0.00 0.00 0.00 29 1011.2
20260507210047 55 245 11.0 19.0 0.00 0.00 0.00 32 1010.8
20260507205544 55 287 13.0 19.0 0.00 0.00 0.00 31 1011.1
20260507205043 55 269 8.0 18.0 0.00 0.00 0.00 29 1011.1
20260507204542 55 299 5.0 17.0 0.00 0.00 0.00 29 1011.3
20260507204045 55 270 11.0 17.0 0.00 0.00 0.00 30 1011.4
20260507203540 55 257 3.0 10.0 0.00 0.00 0.00 29 1011.5
20260507203054 55 271 3.0 16.0 0.00 0.00 0.00 30 1011.5
20260507202539 55 293 6.0 16.0 0.00 0.00 0.00 30 1011.7
20260507202037 55 276 3.0 11.0 0.00 0.00 0.00 29 1011.7
20260507201537 55 301 2.0 11.0 0.00 0.00 0.00 30 1011.7
20260507201036 54 93 2.0 9.0 0.00 0.00 0.00 30 1011.8
20260507200537 55 280 3.0 12.0 0.00 0.00 0.00 30 1011.9
20260507200134 55 324 3.0 12.0 0.00 0.00 0.00 29 1012.0
20260507195534 54 301 4.0 11.0 0.00 0.00 0.00 31 1012.0
20260507195036 54 326 6.0 13.0 0.00 0.00 0.00 29 1012.0
20260507194534 54 242 6.0 13.0 0.00 0.00 0.00 30 1012.1
20260507194032 54 226 1.0 9.0 0.00 0.00 0.00 31 1012.1
20260507193533 54 255 4.0 10.0 0.00 0.00 0.00 29 1012.2
20260507193030 53 256 5.0 15.0 0.00 0.00 0.00 30 1012.2
20260507192532 54 236 10.0 15.0 0.00 0.00 0.00 29 1012.2
20260507192034 54 74 1.0 15.0 0.00 0.00 0.00 30 1012.2
20260507191528 54 262 6.0 15.0 0.00 0.00 0.00 30 1012.4
20260507191027 54 285 2.0 9.0 0.00 0.00 0.00 30 1012.3
20260507190529 53 29 2.0 12.0 0.00 0.00 0.00 30 1012.4
20260507190027 53 273 4.0 14.0 0.00 0.00 0.00 32 1012.5
20260507185529 53 284 5.0 14.0 0.00 0.00 0.00 31 1012.4
20260507185024 53 277 3.0 12.0 0.00 0.00 0.00 32 1012.4
20260507184523 52 283 5.0 12.0 0.00 0.00 0.00 30 1012.4
20260507184023 52 34 2.0 9.0 0.00 0.00 0.00 32 1012.5
20260507183522 52 305 2.0 11.0 0.00 0.00 0.00 30 1012.6
20260507183021 52 323 6.0 15.0 0.00 0.00 0.00 30 1012.7
20260507182521 52 283 10.0 15.0 0.00 0.00 0.00 30 1012.7
20260507182020 52 293 0.0 11.0 0.00 0.00 0.00 32 1012.7
20260507181524 51 58 4.0 11.0 0.00 0.00 0.00 32 1012.8
20260507181019 51 295 6.0 13.0 0.00 0.00 0.00 30 1012.8
20260507180517 51 329 4.0 17.0 0.00 0.00 0.00 32 1012.9
20260507180023 51 299 8.0 17.0 0.00 0.00 0.00 31 1012.8
20260507175517 51 311 7.0 14.0 0.00 0.00 0.00 31 1012.9
20260507175116 51 263 8.0 12.0 0.00 0.00 0.00 31 1012.8
20260507174515 50 273 7.0 13.0 0.00 0.00 0.00 32 1013.0
20260507174014 50 276 7.0 12.0 0.00 0.00 0.00 33 1013.1
20260507173514 50 320 4.0 13.0 0.00 0.00 0.00 32 1013.2
20260507173027 50 312 3.0 13.0 0.00 0.00 0.00 32 1013.3
20260507172513 50 311 4.0 12.0 0.00 0.00 0.00 33 1013.3
20260507172011 50 300 4.0 15.0 0.00 0.00 0.00 32 1013.2
20260507171511 50 278 8.0 15.0 0.00 0.00 0.00 32 1013.3
20260507171012 50 288 5.0 8.0 0.00 0.00 0.00 32 1013.4
20260507170510 50 281 1.0 5.0 0.00 0.00 0.00 34 1013.4
20260507170008 49 118 1.0 8.0 0.00 0.00 0.00 33 1013.4
20260507165510 49 280 5.0 13.0 0.00 0.00 0.00 32 1013.5
20260507165010 49 314 6.0 14.0 0.00 0.00 0.00 33 1013.5
20260507164508 49 290 7.0 16.0 0.00 0.00 0.00 33 1013.5
20260507164007 49 278 8.0 16.0 0.00 0.00 0.00 33 1013.5
20260507163506 49 292 2.0 8.0 0.00 0.00 0.00 34 1013.7
20260507163010 49 307 3.0 8.0 0.00 0.00 0.00 33 1013.8
20260507162504 49 276 2.0 9.0 0.00 0.00 0.00 35 1013.8
20260507162004 49 316 5.0 9.0 0.00 0.00 0.00 34 1013.9
20260507161503 48 316 0.0 9.0 0.00 0.00 0.00 36 1013.9
20260507161002 48 79 5.0 9.0 0.00 0.00 0.00 34 1013.9
20260507160501 48 20 0.0 5.0 0.00 0.00 0.00 40 1013.9
20260507160100 48 323 2.0 6.0 0.00 0.00 0.00 38 1014.0
20260507155559 47 316 3.0 6.0 0.00 0.00 0.00 38 1013.9
20260507155106 47 292 0.0 9.0 0.00 0.00 0.00 39 1014.0
20260507154600 47 293 4.0 9.0 0.00 0.00 0.00 37 1014.0
20260507154059 47 281 1.0 5.0 0.00 0.00 0.00 43 1014.0
20260507153556 47 278 1.0 7.0 0.00 0.00 0.00 42 1014.1
20260507153056 46 200 3.0 9.0 0.00 0.00 0.00 43 1014.0
20260507152555 46 297 5.0 9.0 0.00 0.00 0.00 43 1014.1
20260507152053 45 167 0.0 10.0 0.00 0.00 0.00 42 1014.1